Hourly Data Report for July 18, 2021

TORONTO INTL A
ONTARIO
Current Station Operator: NAVCAN

43°40'36.000" N
79°37'50.000" W
173.40 m
6158731
71624
YYZ

Download Data

Hourly Data (July 2021)
Hourly Data Report for July 18, 2021
TIME
LST
Temp Definition
°C
Dew Point Definition
°C
Rel Hum Definition
%
Precip. Amount Definition
mm

Wind Dir Definition
10's deg

Wind Spd Definition
km/h
Visibility Definition
km
Stn Press Definition
kPa
Hmdx Definition


Wind Chill Definition


Weather Definition


00:00 19.9 15.1 74   36 12 24.1 99.81     LegendNANA
01:00 19.9 14.4 71   34 21 24.1 99.81     Cloudy
02:00 19.7 14.5 72   35 19 24.1 99.80     LegendNANA
03:00 19.2 14.6 74   35 16 24.1 99.80     LegendNANA
04:00 18.9 14.4 75   35 15 24.1 99.82     Mostly Cloudy
05:00 18.3 14.5 79   36 12 24.1 99.87     LegendNANA
06:00 19.4 14.9 75   35 17 24.1 99.88     LegendNANA
07:00 19.9 15.4 75   34 14 24.1 99.90     Mostly Cloudy
08:00 20.9 16.4 75   36 13 24.1 99.94 26   LegendNANA
09:00 21.7 16.9 74   35 13 24.1 99.93 27   LegendNANA
10:00 23.0 17.3 70   36 13 24.1 99.92 28   Mostly Cloudy
11:00 25.9 19.5 67   36 11 24.1 99.89 33   LegendNANA
12:00 28.4 19.2 57   1 8 24.1 99.84 35   LegendNANA
13:00 29.1 17.1 48   2 22 24.1 99.82 34   Cloudy
14:00 28.5 14.8 43   35 26 24.1 99.80 32   LegendNANA
15:00 28.8 15.5 44   35 21 24.1 99.78 33   LegendNANA
16:00 28.9 15.4 43   34 22 24.1 99.74 33   Cloudy
17:00 27.6 14.9 45   35 19 19.3 99.76 32   LegendNANA
18:00 27.1 14.1 44   35 25 24.1 99.75 31   LegendNANA
19:00 26.0 14.9 50   36 16 24.1 99.79 30   Cloudy
20:00 24.6 14.9 54   36 17 24.1 99.78 29   LegendNANA
21:00 23.8 14.8 57   34 13 24.1 99.81 28   LegendNANA
22:00 23.0 14.8 60   34 17 24.1 99.80 27   Mostly Cloudy
23:00 21.9 15.4 66   34 16 24.1 99.80 26   LegendNANA

Notes on Data Quality.

Legend

  • E = Estimated
  • M = Missing
  • NA = Not Available*
  • [empty] = Indicates an unobserved value
Date modified: